Location: Unspecified
(0.0000°N, 0.0000°E)
Time: 03:32:23
(UTC+00:00)

ESSA 4 - Pass Details

Date: 04 November 2024
Orbit: 1326 x 1439 km, 102.1° (Epoch: 03 December)

Event Time Altitude Azimuth Distance (km) Brightness Sun altitude
Rises 02:27:36 0° 119° (ESE) 4,331 12.6 -46.7°
Reaches altitude 10° 02:33:12 10° 86° (E) 3,354 11.8 -45.4°
Maximum altitude 02:35:04 11° 72° (ENE) 3,277 11.6 -44.9°
Drops below altitude 10° 02:36:55 10° 58° (ENE) 3,355 11.6 -44.5°
Sets 02:42:28 0° 25° (NNE) 4,337 11.9 -43.2°
